^^

..:: Storico WU ::..




Lo storico viene creato da WUnderground con i dati che la stazione Meteomincio invia al loro server. L' aggiornamento viene fatto ogni 5 minuti circa, tuttavia possono esserci intervalli pił ampi a causa di errori, interruzioni di servizio o problemi nell' invio tramite FTP.


Storico stazione MeteoMincio
Giorno Sommario per Marzo 01, 2022 Unità:  Inglese    Metrico   Entrambi
Giorno Settimana Mese Anno
  Max: Min: Media:
Temperatura: 51.8 °F 32 °F 42.1 °F
Dew Point: 28.4 °F 23 °F 26.2 °F
Umidità: 76% 34% 55%
Velocità vento: 20.5mph 0mph 5.7mph
Raffica: 29.2mph - -
Direzione- - WSW
Pressione: 30.5 in 30.3 in -
Precipitazioni: 0 in    
 
 
Tabulato Dati per Marzo 01, 2022
Ora Temperatura Dew Point Pressione Direzione Velocità vento Raffica Umidità Intensità pioggia (oraria) Info solare Situazione
00:04 42.8 °F 28.4 °F 30.4 in ENE 13.7 mph 21.7 mph 58% 0 in 0.00 W/m2 unknown
00:09 42.8 °F 28.4 °F 30.4 in East 14.3 mph 21.1 mph 57% 0 in 0.00 W/m2 unknown
00:14 42.8 °F 28.4 °F 30.4 in East 13.7 mph 21.1 mph 56% 0 in 0.00 W/m2 unknown
00:19 42.8 °F 28.4 °F 30.4 in ENE 14.3 mph 19.9 mph 56% 0 in 0.00 W/m2 unknown
00:24 42.8 °F 26.6 °F 30.4 in East 18 mph 23 mph 55% 0 in 0.00 W/m2 unknown
00:29 42.8 °F 26.6 °F 30.4 in East 16.8 mph 23 mph 55% 0 in 0.00 W/m2 unknown
00:34 42.8 °F 26.6 °F 30.4 in East 18 mph 25.5 mph 54% 0 in 0.00 W/m2 unknown
00:39 42.8 °F 26.6 °F 30.4 in East 20.5 mph 29.2 mph 54% 0 in 0.00 W/m2 unknown
00:44 42.8 °F 26.6 °F 30.4 in East 15.5 mph 29.2 mph 54% 0 in 0.00 W/m2 unknown
00:49 42.8 °F 26.6 °F 30.4 in East 16.2 mph 23 mph 54% 0 in 0.00 W/m2 unknown
00:54 42.8 °F 26.6 °F 30.4 in East 17.4 mph 23 mph 55% 0 in 0.00 W/m2 unknown
00:59 41 °F 26.6 °F 30.4 in East 15.5 mph 23 mph 54% 0 in 0.00 W/m2 unknown
01:04 41 °F 26.6 °F 30.4 in East 15.5 mph 21.7 mph 54% 0 in 0.00 W/m2 unknown
01:09 41 °F 26.6 °F 30.4 in East 14.9 mph 21.7 mph 54% 0 in 0.00 W/m2 unknown
01:14 41 °F 26.6 °F 30.5 in East 16.2 mph 21.7 mph 54% 0 in 0.00 W/m2 unknown
01:19 41 °F 26.6 °F 30.5 in ENE 16.8 mph 21.7 mph 54% 0 in 0.00 W/m2 unknown
01:24 41 °F 26.6 °F 30.5 in East 13 mph 21.1 mph 54% 0 in 0.00 W/m2 unknown
01:29 41 °F 26.6 °F 30.5 in East 11.8 mph 18 mph 54% 0 in 0.00 W/m2 unknown
01:34 41 °F 26.6 °F 30.5 in East 12.4 mph 21.7 mph 54% 0 in 0.00 W/m2 unknown
01:39 41 °F 26.6 °F 30.5 in East 13.7 mph 21.7 mph 54% 0 in 0.00 W/m2 unknown
01:44 41 °F 26.6 °F 30.5 in East 12.4 mph 21.7 mph 54% 0 in 0.00 W/m2 unknown
01:49 41 °F 26.6 °F 30.5 in ENE 11.8 mph 24.2 mph 54% 0 in 0.00 W/m2 unknown
01:54 41 °F 26.6 °F 30.5 in ENE 14.3 mph 24.2 mph 54% 0 in 0.00 W/m2 unknown
01:59 41 °F 26.6 °F 30.5 in ENE 13 mph 24.2 mph 54% 0 in 0.00 W/m2 unknown
02:04 41 °F 26.6 °F 30.5 in ENE 9.9 mph 16.2 mph 55% 0 in 0.00 W/m2 unknown
02:09 41 °F 26.6 °F 30.5 in East 8.7 mph 16.2 mph 55% 0 in 0.00 W/m2 unknown
02:14 41 °F 26.6 °F 30.5 in ENE 8.1 mph 13 mph 56% 0 in 0.00 W/m2 unknown
02:19 41 °F 26.6 °F 30.5 in East 8.7 mph 11.8 mph 56% 0 in 0.00 W/m2 unknown
02:24 41 °F 26.6 °F 30.5 in ENE 8.7 mph 10.6 mph 56% 0 in 0.00 W/m2 unknown
02:29 41 °F 26.6 °F 30.5 in East 6.2 mph 9.9 mph 56% 0 in 0.00 W/m2 unknown
02:34 41 °F 26.6 °F 30.5 in ENE 6.2 mph 8.7 mph 57% 0 in 0.00 W/m2 unknown
02:39 41 °F 26.6 °F 30.5 in ENE 6.2 mph 9.3 mph 58% 0 in 0.00 W/m2 unknown
02:44 39.2 °F 26.6 °F 30.5 in ENE 5 mph 8.7 mph 58% 0 in 0.00 W/m2 unknown
02:49 39.2 °F 26.6 °F 30.5 in NE 5.6 mph 8.1 mph 58% 0 in 0.00 W/m2 unknown
02:54 39.2 °F 26.6 °F 30.5 in ENE 5 mph 8.1 mph 59% 0 in 0.00 W/m2 unknown
02:59 39.2 °F 26.6 °F 30.5 in ENE 4.3 mph 6.8 mph 59% 0 in 0.00 W/m2 unknown
03:04 39.2 °F 26.6 °F 30.5 in ENE 3.7 mph 5 mph 60% 0 in 0.00 W/m2 unknown
03:09 39.2 °F 26.6 °F 30.5 in NE 2.5 mph 3.7 mph 60% 0 in 0.00 W/m2 unknown
03:14 39.2 °F 26.6 °F 30.5 in NE 3.1 mph 3.7 mph 60% 0 in 0.00 W/m2 unknown
03:19 39.2 °F 26.6 °F 30.5 in NE 3.1 mph 3.7 mph 61% 0 in 0.00 W/m2 unknown
03:24 39.2 °F 26.6 °F 30.5 in NE 2.5 mph 3.7 mph 62% 0 in 0.00 W/m2 unknown
03:29 39.2 °F 28.4 °F 30.5 in NNE 1.9 mph 3.7 mph 63% 0 in 0.00 W/m2 unknown
03:34 39.2 °F 28.4 °F 30.5 in North 1.2 mph 3.7 mph 63% 0 in 0.00 W/m2 unknown
03:39 39.2 °F 28.4 °F 30.5 in North 1.2 mph 3.1 mph 64% 0 in 0.00 W/m2 unknown
03:44 39.2 °F 28.4 °F 30.5 in NNW 1.9 mph 3.7 mph 64% 0 in 0.00 W/m2 unknown
03:49 39.2 °F 28.4 °F 30.5 in North 1.9 mph 3.1 mph 64% 0 in 0.00 W/m2 unknown
03:54 39.2 °F 28.4 °F 30.5 in North 1.2 mph 2.5 mph 64% 0 in 0.00 W/m2 unknown
03:59 39.2 °F 28.4 °F 30.5 in Calm   1.9 mph 64% 0 in 0.00 W/m2 unknown
04:04 39.2 °F 26.6 °F 30.5 in North 1.2 mph 2.5 mph 63% 0 in 0.00 W/m2 unknown
04:09 39.2 °F 26.6 °F 30.5 in North 1.9 mph 3.7 mph 64% 0 in 0.00 W/m2 unknown
04:14 39.2 °F 28.4 °F 30.5 in North 1.2 mph 3.1 mph 65% 0 in 0.00 W/m2 unknown
04:19 39.2 °F 28.4 °F 30.5 in Calm   1.9 mph 65% 0 in 0.00 W/m2 unknown
04:24 37.4 °F 26.6 °F 30.5 in North 1.2 mph 2.5 mph 65% 0 in 0.00 W/m2 unknown
04:29 37.4 °F 26.6 °F 30.5 in North 1.2 mph 2.5 mph 66% 0 in 0.00 W/m2 unknown
04:34 37.4 °F 28.4 °F 30.5 in North 0.6 mph 1.2 mph 67% 0 in 0.00 W/m2 unknown
04:39 37.4 °F 26.6 °F 30.5 in North 1.2 mph 2.5 mph 67% 0 in 0.00 W/m2 unknown
04:44 37.4 °F 26.6 °F 30.5 in North 1.2 mph 2.5 mph 68% 0 in 0.00 W/m2 unknown
04:49 37.4 °F 26.6 °F 30.5 in NNW 1.2 mph 2.5 mph 69% 0 in 0.00 W/m2 unknown
04:54 35.6 °F 26.6 °F 30.5 in NNW 1.2 mph 1.9 mph 70% 0 in 0.00 W/m2 unknown
04:59 35.6 °F 26.6 °F 30.5 in Calm   1.2 mph 70% 0 in 0.00 W/m2 unknown
05:04 35.6 °F 26.6 °F 30.5 in NW 1.2 mph 2.5 mph 70% 0 in 0.00 W/m2 unknown
05:09 35.6 °F 26.6 °F 30.5 in NW 1.9 mph 2.5 mph 71% 0 in 0.00 W/m2 unknown
05:14 33.8 °F 26.6 °F 30.5 in WNW 1.9 mph 3.7 mph 72% 0 in 0.00 W/m2 unknown
05:19 33.8 °F 26.6 °F 30.5 in West 2.5 mph 3.7 mph 72% 0 in 0.00 W/m2 unknown
05:24 33.8 °F 24.8 °F 30.5 in West 2.5 mph 3.7 mph 72% 0 in 0.00 W/m2 unknown
05:29 33.8 °F 24.8 °F 30.5 in West 1.9 mph 3.1 mph 73% 0 in 0.00 W/m2 unknown
05:34 33.8 °F 24.8 °F 30.5 in West 1.2 mph 2.5 mph 73% 0 in 0.00 W/m2 unknown
05:39 33.8 °F 24.8 °F 30.5 in West 1.9 mph 2.5 mph 73% 0 in 0.00 W/m2 unknown
05:44 32 °F 24.8 °F 30.5 in West 1.9 mph 3.1 mph 73% 0 in 0.00 W/m2 unknown
05:49 33.8 °F 24.8 °F 30.5 in WNW 3.1 mph 3.7 mph 74% 0 in 0.00 W/m2 unknown
05:54 33.8 °F 26.6 °F 30.5 in NW 3.1 mph 3.7 mph 74% 0 in 0.00 W/m2 unknown
05:59 33.8 °F 24.8 °F 30.5 in NW 3.7 mph 5 mph 73% 0 in 0.00 W/m2 unknown
06:04 33.8 °F 26.6 °F 30.5 in NW 3.7 mph 5 mph 72% 0 in 0.00 W/m2 unknown
06:09 33.8 °F 26.6 °F 30.5 in WNW 3.1 mph 5 mph 72% 0 in 0.00 W/m2 unknown
06:14 33.8 °F 24.8 °F 30.5 in NW 2.5 mph 3.7 mph 72% 0 in 0.00 W/m2 unknown
06:19 32 °F 24.8 °F 30.5 in NW 1.9 mph 3.7 mph 73% 0 in 0.00 W/m2 unknown
06:24 32 °F 24.8 °F 30.5 in WNW 2.5 mph 3.7 mph 73% 0 in 0.00 W/m2 unknown
06:29 32 °F 24.8 °F 30.5 in WNW 1.9 mph 3.7 mph 74% 0 in 0.00 W/m2 unknown
06:34 32 °F 24.8 °F 30.5 in NW 2.5 mph 3.7 mph 74% 0 in 0.00 W/m2 unknown
06:39 32 °F 24.8 °F 30.5 in NW 3.1 mph 3.7 mph 74% 0 in 0.00 W/m2 unknown
06:44 32 °F 24.8 °F 30.5 in WNW 3.7 mph 5 mph 73% 0 in 0.00 W/m2 unknown
06:49 32 °F 24.8 °F 30.5 in WNW 3.7 mph 5 mph 73% 0 in 0.00 W/m2 unknown
06:54 32 °F 24.8 °F 30.5 in WNW 3.1 mph 3.7 mph 73% 0 in 0.00 W/m2 unknown
06:59 32 °F 24.8 °F 30.5 in WNW 3.1 mph 3.7 mph 73% 0 in 5.00 W/m2 unknown
07:04 32 °F 24.8 °F 30.5 in WNW 2.5 mph 3.7 mph 73% 0 in 7.00 W/m2 unknown
07:09 32 °F 24.8 °F 30.5 in WNW 3.1 mph 3.7 mph 73% 0 in 11.00 W/m2 unknown
07:14 32 °F 24.8 °F 30.5 in WNW 3.1 mph 3.7 mph 73% 0 in 12.00 W/m2 unknown
07:19 33.8 °F 24.8 °F 30.5 in WNW 3.1 mph 5 mph 73% 0 in 16.00 W/m2 unknown
07:24 33.8 °F 24.8 °F 30.5 in WNW 3.1 mph 5 mph 72% 0 in 21.00 W/m2 unknown
07:29 33.8 °F 24.8 °F 30.5 in WNW 3.1 mph 3.7 mph 72% 0 in 26.00 W/m2 unknown
07:34 33.8 °F 26.6 °F 30.5 in WNW 3.7 mph 3.7 mph 76% 0 in 33.00 W/m2 unknown
07:39 33.8 °F 24.8 °F 30.5 in WNW 3.7 mph 5 mph 72% 0 in 44.00 W/m2 unknown
07:44 33.8 °F 24.8 °F 30.5 in WNW 3.1 mph 5 mph 71% 0 in 53.00 W/m2 unknown
07:49 33.8 °F 26.6 °F 30.5 in WNW 3.1 mph 3.7 mph 71% 0 in 69.00 W/m2 unknown
07:54 35.6 °F 26.6 °F 30.5 in NW 2.5 mph 3.7 mph 71% 0 in 83.00 W/m2 unknown
07:59 35.6 °F 26.6 °F 30.5 in NW 3.7 mph 5 mph 70% 0 in 98.00 W/m2 unknown
08:04 35.6 °F 26.6 °F 30.5 in NW 4.3 mph 5 mph 70% 0 in 111.00 W/m2 unknown
08:09 37.4 °F 26.6 °F 30.5 in WNW 3.7 mph 6.2 mph 69% 0 in 127.00 W/m2 unknown
08:14 37.4 °F 28.4 °F 30.5 in WNW 4.3 mph 6.8 mph 69% 0 in 144.00 W/m2 unknown
08:19 37.4 °F 28.4 °F 30.5 in NW 5 mph 6.8 mph 69% 0 in 160.00 W/m2 unknown
08:24 37.4 °F 28.4 °F 30.5 in NW 5 mph 6.8 mph 68% 0 in 176.00 W/m2 unknown
08:29 39.2 °F 28.4 °F 30.5 in NW 5 mph 6.8 mph 67% 0 in 192.00 W/m2 unknown
08:34 39.2 °F 28.4 °F 30.5 in NW 5 mph 6.8 mph 66% 0 in 206.00 W/m2 unknown
08:39 39.2 °F 28.4 °F 30.5 in WNW 5.6 mph 8.1 mph 65% 0 in 218.00 W/m2 unknown
08:44 39.2 °F 28.4 °F 30.5 in NW 6.2 mph 8.1 mph 64% 0 in 232.00 W/m2 unknown
08:49 41 °F 28.4 °F 30.5 in NW 5 mph 8.1 mph 64% 0 in 244.00 W/m2 unknown
08:54 41 °F 28.4 °F 30.5 in NW 5.6 mph 6.8 mph 63% 0 in 258.00 W/m2 unknown
08:59 41 °F 28.4 °F 30.5 in WNW 5.6 mph 8.1 mph 60% 0 in 272.00 W/m2 unknown
09:04 42.8 °F 28.4 °F 30.5 in WNW 5.6 mph 8.1 mph 60% 0 in 287.00 W/m2 unknown
09:09 42.8 °F 28.4 °F 30.5 in NW 6.2 mph 8.1 mph 56% 0 in 299.00 W/m2 unknown
09:14 42.8 °F 28.4 °F 30.5 in WNW 7.5 mph 9.3 mph 56% 0 in 311.00 W/m2 unknown
09:19 42.8 °F 28.4 °F 30.5 in NW 8.7 mph 10.6 mph 54% 0 in 325.00 W/m2 unknown
09:24 42.8 °F 28.4 °F 30.5 in NW 8.1 mph 11.8 mph 54% 0 in 336.00 W/m2 unknown
09:29 44.6 °F 28.4 °F 30.5 in NW 6.2 mph 8.1 mph 54% 0 in 346.00 W/m2 unknown
09:34 44.6 °F 28.4 °F 30.5 in WNW 8.1 mph 11.8 mph 53% 0 in 360.00 W/m2 unknown
09:39 44.6 °F 26.6 °F 30.5 in WNW 8.7 mph 11.8 mph 51% 0 in 376.00 W/m2 unknown
09:44 44.6 °F 26.6 °F 30.5 in WNW 8.1 mph 10.6 mph 51% 0 in 387.00 W/m2 unknown
09:49 44.6 °F 26.6 °F 30.5 in WNW 9.3 mph 11.8 mph 49% 0 in 396.00 W/m2 unknown
09:54 44.6 °F 26.6 °F 30.5 in NW 8.1 mph 11.8 mph 46% 0 in 410.00 W/m2 unknown
09:59 44.6 °F 26.6 °F 30.5 in WNW 8.1 mph 11.8 mph 47% 0 in 418.00 W/m2 unknown
10:04 46.4 °F 26.6 °F 30.5 in WNW 8.1 mph 10.6 mph 48% 0 in 429.00 W/m2 unknown
10:09 46.4 °F 26.6 °F 30.5 in WNW 10.6 mph 11.8 mph 48% 0 in 439.00 W/m2 unknown
10:14 46.4 °F 26.6 °F 30.5 in WNW 8.7 mph 11.8 mph 48% 0 in 450.00 W/m2 unknown
10:19 46.4 °F 26.6 °F 30.5 in WNW 9.3 mph 11.8 mph 47% 0 in 462.00 W/m2 unknown
10:24 46.4 °F 24.8 °F 30.5 in WNW 8.7 mph 11.8 mph 44% 0 in 471.00 W/m2 unknown
10:29 46.4 °F 24.8 °F 30.5 in WNW 8.7 mph 11.8 mph 44% 0 in 480.00 W/m2 unknown
10:34 46.4 °F 26.6 °F 30.5 in West 8.1 mph 11.8 mph 46% 0 in 489.00 W/m2 unknown
10:39 46.4 °F 26.6 °F 30.5 in West 9.3 mph 14.3 mph 45% 0 in 499.00 W/m2 unknown
10:44 48.2 °F 26.6 °F 30.5 in West 8.7 mph 14.3 mph 45% 0 in 504.00 W/m2 unknown
10:49 48.2 °F 26.6 °F 30.5 in West 8.7 mph 11.8 mph 45% 0 in 513.00 W/m2 unknown
10:54 48.2 °F 26.6 °F 30.5 in West 8.7 mph 11.8 mph 44% 0 in 522.00 W/m2 unknown
10:59 48.2 °F 26.6 °F 30.5 in West 6.8 mph 11.8 mph 44% 0 in 529.00 W/m2 unknown
11:04 48.2 °F 26.6 °F 30.5 in WSW 8.7 mph 10.6 mph 42% 0 in 538.00 W/m2 unknown
11:09 48.2 °F 24.8 °F 30.5 in West 6.8 mph 9.9 mph 40% 0 in 545.00 W/m2 unknown
11:14 48.2 °F 24.8 °F 30.5 in WNW 6.2 mph 10.6 mph 40% 0 in 548.00 W/m2 unknown
11:19 48.2 °F 23 °F 30.5 in WSW 8.7 mph 11.2 mph 38% 0 in 555.00 W/m2 unknown
11:24 48.2 °F 24.8 °F 30.5 in WSW 8.1 mph 11.8 mph 41% 0 in 561.00 W/m2 unknown
11:29 48.2 °F 24.8 °F 30.5 in SW 7.5 mph 11.8 mph 40% 0 in 566.00 W/m2 unknown
11:34 48.2 °F 26.6 °F 30.5 in WSW 8.7 mph 11.8 mph 42% 0 in 575.00 W/m2 unknown
11:39 48.2 °F 24.8 °F 30.5 in West 8.7 mph 11.8 mph 41% 0 in 578.00 W/m2 unknown
11:44 48.2 °F 24.8 °F 30.5 in West 7.5 mph 11.8 mph 39% 0 in 580.00 W/m2 unknown
11:49 48.2 °F 26.6 °F 30.5 in WSW 7.5 mph 10.6 mph 41% 0 in 585.00 W/m2 unknown
11:54 48.2 °F 26.6 °F 30.5 in WSW 10.6 mph 13 mph 41% 0 in 592.00 W/m2 unknown
11:59 48.2 °F 24.8 °F 30.5 in West 8.1 mph 10.6 mph 38% 0 in 592.00 W/m2 unknown
12:04 48.2 °F 24.8 °F 30.5 in WSW 6.8 mph 9.9 mph 38% 0 in 601.00 W/m2 unknown
12:09 48.2 °F 24.8 °F 30.4 in WSW 8.1 mph 11.8 mph 39% 0 in 603.00 W/m2 unknown
12:14 50 °F 24.8 °F 30.4 in WSW 7.5 mph 11.8 mph 39% 0 in 601.00 W/m2 unknown
12:19 50 °F 24.8 °F 30.4 in WSW 7.5 mph 9.3 mph 39% 0 in 605.00 W/m2 unknown
12:24 50 °F 24.8 °F 30.4 in West 9.9 mph 14.3 mph 39% 0 in 606.00 W/m2 unknown
12:29 50 °F 24.8 °F 30.4 in WSW 8.7 mph 14.3 mph 38% 0 in 608.00 W/m2 unknown
12:34 50 °F 24.8 °F 30.4 in WSW 9.9 mph 13 mph 38% 0 in 610.00 W/m2 unknown
12:39 50 °F 24.8 °F 30.4 in WSW 9.9 mph 13 mph 38% 0 in 605.00 W/m2 unknown
12:44 50 °F 24.8 °F 30.4 in WSW 9.3 mph 11.8 mph 38% 0 in 606.00 W/m2 unknown
12:49 50 °F 24.8 °F 30.4 in WSW 9.9 mph 13 mph 38% 0 in 605.00 W/m2 unknown
12:54 50 °F 24.8 °F 30.4 in West 9.3 mph 14.3 mph 38% 0 in 603.00 W/m2 unknown
12:59 50 °F 24.8 °F 30.4 in West 8.1 mph 14.3 mph 37% 0 in 605.00 W/m2 unknown
13:04 50 °F 24.8 °F 30.4 in WSW 7.5 mph 11.8 mph 38% 0 in 603.00 W/m2 unknown
13:09 50 °F 26.6 °F 30.4 in West 10.6 mph 14.9 mph 39% 0 in 603.00 W/m2 unknown
13:14 50 °F 24.8 °F 30.4 in West 8.1 mph 14.9 mph 37% 0 in 599.00 W/m2 unknown
13:19 50 °F 24.8 °F 30.4 in West 8.1 mph 11.8 mph 37% 0 in 598.00 W/m2 unknown
13:24 50 °F 24.8 °F 30.4 in West 9.9 mph 13 mph 37% 0 in 592.00 W/m2 unknown
13:29 50 °F 26.6 °F 30.4 in West 9.3 mph 13 mph 40% 0 in 591.00 W/m2 unknown
13:34 50 °F 24.8 °F 30.4 in WSW 9.3 mph 13 mph 37% 0 in 589.00 W/m2 unknown
13:39 50 °F 24.8 °F 30.4 in WSW 11.2 mph 14.9 mph 36% 0 in 584.00 W/m2 unknown
13:44 50 °F 24.8 °F 30.4 in West 10.6 mph 14.9 mph 36% 0 in 577.00 W/m2 unknown
13:49 51.8 °F 24.8 °F 30.4 in West 6.8 mph 13 mph 37% 0 in 571.00 W/m2 unknown
13:54 51.8 °F 24.8 °F 30.4 in West 8.7 mph 13 mph 36% 0 in 566.00 W/m2 unknown
13:59 51.8 °F 24.8 °F 30.4 in WSW 8.1 mph 13 mph 37% 0 in 561.00 W/m2 unknown
14:04 51.8 °F 26.6 °F 30.4 in WSW 10.6 mph 14.3 mph 37% 0 in 554.00 W/m2 unknown
14:09 51.8 °F 24.8 °F 30.4 in WSW 11.2 mph 13.7 mph 35% 0 in 548.00 W/m2 unknown
14:14 51.8 °F 24.8 °F 30.4 in WSW 11.8 mph 14.9 mph 36% 0 in 541.00 W/m2 unknown
14:19 51.8 °F 24.8 °F 30.4 in West 8.7 mph 14.9 mph 35% 0 in 534.00 W/m2 unknown
14:24 51.8 °F 24.8 °F 30.4 in WNW 9.3 mph 14.3 mph 34% 0 in 526.00 W/m2 unknown
14:29 51.8 °F 24.8 °F 30.4 in West 9.9 mph 12.4 mph 35% 0 in 520.00 W/m2 unknown
14:34 51.8 °F 24.8 °F 30.4 in West 9.3 mph 13 mph 36% 0 in 512.00 W/m2 unknown
14:39 51.8 °F 24.8 °F 30.4 in West 9.3 mph 14.3 mph 36% 0 in 501.00 W/m2 unknown
14:44 51.8 °F 24.8 °F 30.4 in West 9.9 mph 14.3 mph 36% 0 in 494.00 W/m2 unknown
14:49 51.8 °F 26.6 °F 30.4 in West 10.6 mph 14.3 mph 38% 0 in 483.00 W/m2 unknown
14:54 51.8 °F 24.8 °F 30.4 in WSW 9.3 mph 13 mph 36% 0 in 469.00 W/m2 unknown
14:59 51.8 °F 26.6 °F 30.4 in West 9.3 mph 13 mph 37% 0 in 462.00 W/m2 unknown
15:04 51.8 °F 26.6 °F 30.4 in WSW 8.1 mph 13 mph 37% 0 in 455.00 W/m2 unknown
15:09 51.8 °F 26.6 °F 30.4 in West 8.1 mph 11.8 mph 37% 0 in 445.00 W/m2 unknown
15:14 51.8 °F 26.6 °F 30.3 in West 9.3 mph 11.8 mph 38% 0 in 434.00 W/m2 unknown
15:19 51.8 °F 26.6 °F 30.3 in West 8.1 mph 11.8 mph 38% 0 in 422.00 W/m2 unknown
15:24 51.8 °F 24.8 °F 30.3 in West 8.1 mph 11.8 mph 37% 0 in 410.00 W/m2 unknown
15:29 51.8 °F 26.6 °F 30.3 in WSW 6.8 mph 11.2 mph 38% 0 in 396.00 W/m2 unknown
15:34 51.8 °F 26.6 °F 30.3 in WSW 8.1 mph 11.8 mph 38% 0 in 388.00 W/m2 unknown
15:39 51.8 °F 26.6 °F 30.3 in WSW 7.5 mph 11.8 mph 38% 0 in 374.00 W/m2 unknown
15:44 51.8 °F 26.6 °F 30.3 in West 8.1 mph 11.8 mph 37% 0 in 362.00 W/m2 unknown
15:49 51.8 °F 26.6 °F 30.3 in WNW 8.1 mph 11.8 mph 37% 0 in 350.00 W/m2 unknown
15:54 51.8 °F 26.6 °F 30.3 in West 7.5 mph 11.8 mph 38% 0 in 338.00 W/m2 unknown
15:59 51.8 °F 26.6 °F 30.3 in WSW 6.8 mph 11.8 mph 38% 0 in 325.00 W/m2 unknown
16:04 51.8 °F 26.6 °F 30.3 in West 6.2 mph 9.3 mph 37% 0 in 308.00 W/m2 unknown
16:09 51.8 °F 26.6 °F 30.3 in West 6.2 mph 9.3 mph 39% 0 in 297.00 W/m2 unknown
16:14 51.8 °F 26.6 °F 30.3 in West 6.2 mph 8.7 mph 39% 0 in 283.00 W/m2 unknown
16:19 51.8 °F 26.6 °F 30.3 in WSW 9.9 mph 11.8 mph 39% 0 in 271.00 W/m2 unknown
16:24 51.8 °F 26.6 °F 30.3 in West 8.1 mph 11.8 mph 39% 0 in 255.00 W/m2 unknown
16:29 51.8 °F 26.6 °F 30.3 in WSW 6.2 mph 8.7 mph 39% 0 in 243.00 W/m2 unknown
16:34 51.8 °F 26.6 °F 30.3 in WSW 6.8 mph 9.3 mph 39% 0 in 225.00 W/m2 unknown
16:39 50 °F 26.6 °F 30.3 in West 6.8 mph 9.3 mph 39% 0 in 213.00 W/m2 unknown
16:44 50 °F 26.6 °F 30.3 in West 6.2 mph 8.7 mph 39% 0 in 199.00 W/m2 unknown
16:49 50 °F 26.6 °F 30.3 in WSW 8.1 mph 9.3 mph 40% 0 in 183.00 W/m2 unknown
16:54 50 °F 26.6 °F 30.3 in WSW 6.8 mph 9.3 mph 40% 0 in 163.00 W/m2 unknown
16:59 50 °F 26.6 °F 30.3 in WSW 6.2 mph 8.7 mph 41% 0 in 148.00 W/m2 unknown
17:04 50 °F 26.6 °F 30.3 in WSW 5.6 mph 8.1 mph 41% 0 in 132.00 W/m2 unknown
17:09 50 °F 26.6 °F 30.3 in SW 5.6 mph 8.1 mph 41% 0 in 114.00 W/m2 unknown
17:14 50 °F 26.6 °F 30.3 in WSW 7.5 mph 9.3 mph 41% 0 in 100.00 W/m2 unknown
17:19 50 °F 26.6 °F 30.3 in SW 4.3 mph 6.8 mph 41% 0 in 88.00 W/m2 unknown
17:24 50 °F 26.6 °F 30.3 in SW 5 mph 6.8 mph 41% 0 in 70.00 W/m2 unknown
17:29 50 °F 26.6 °F 30.3 in SW 4.3 mph 6.2 mph 42% 0 in 60.00 W/m2 unknown
17:34 48.2 °F 26.6 °F 30.3 in SW 4.3 mph 6.2 mph 42% 0 in 47.00 W/m2 unknown
17:39 48.2 °F 26.6 °F 30.3 in SW 5 mph 6.2 mph 42% 0 in 35.00 W/m2 unknown
17:44 48.2 °F 26.6 °F 30.3 in SW 5 mph 6.2 mph 44% 0 in 28.00 W/m2 unknown
17:49 48.2 °F 26.6 °F 30.3 in SW 3.1 mph 5 mph 44% 0 in 19.00 W/m2 unknown
17:54 48.2 °F 26.6 °F 30.3 in SW 1.9 mph 3.7 mph 44% 0 in 14.00 W/m2 unknown
17:59 48.2 °F 26.6 °F 30.3 in SW 1.9 mph 3.7 mph 44% 0 in 9.00 W/m2 unknown
18:04 48.2 °F 26.6 °F 30.3 in SW 1.9 mph 3.7 mph 45% 0 in 5.00 W/m2 unknown
18:09 46.4 °F 26.6 °F 30.3 in SW 1.2 mph 3.1 mph 46% 0 in 0.00 W/m2 unknown
18:14 46.4 °F 26.6 °F 30.3 in SW 1.2 mph 2.5 mph 48% 0 in 0.00 W/m2 unknown
18:19 46.4 °F 26.6 °F 30.3 in SW 2.5 mph 3.7 mph 48% 0 in 0.00 W/m2 unknown
18:24 44.6 °F 26.6 °F 30.3 in SW 1.9 mph 3.7 mph 50% 0 in 0.00 W/m2 unknown
18:29 44.6 °F 26.6 °F 30.3 in SW 1.2 mph 3.1 mph 51% 0 in 0.00 W/m2 unknown
18:34 44.6 °F 26.6 °F 30.3 in SW 1.9 mph 2.5 mph 51% 0 in 0.00 W/m2 unknown
18:39 44.6 °F 26.6 °F 30.3 in SW 1.2 mph 2.5 mph 52% 0 in 0.00 W/m2 unknown
18:44 42.8 °F 26.6 °F 30.3 in SW 1.2 mph 1.9 mph 53% 0 in 0.00 W/m2 unknown
18:49 42.8 °F 26.6 °F 30.3 in SW 1.2 mph 2.5 mph 53% 0 in 0.00 W/m2 unknown
18:54 42.8 °F 26.6 °F 30.3 in SW 1.2 mph 2.5 mph 54% 0 in 0.00 W/m2 unknown
18:59 42.8 °F 26.6 °F 30.3 in SW 1.9 mph 3.7 mph 55% 0 in 0.00 W/m2 unknown
19:04 42.8 °F 26.6 °F 30.3 in SW 1.9 mph 3.7 mph 55% 0 in 0.00 W/m2 unknown
19:09 42.8 °F 26.6 °F 30.3 in SSW 2.5 mph 3.7 mph 55% 0 in 0.00 W/m2 unknown
19:14 42.8 °F 26.6 °F 30.3 in SSW 1.9 mph 3.7 mph 54% 0 in 0.00 W/m2 unknown
19:19 42.8 °F 26.6 °F 30.3 in SSW 1.9 mph 3.7 mph 56% 0 in 0.00 W/m2 unknown
19:24 42.8 °F 26.6 °F 30.4 in SSW 1.9 mph 3.7 mph 56% 0 in 0.00 W/m2 unknown
19:29 41 °F 26.6 °F 30.4 in SSW 1.9 mph 3.1 mph 57% 0 in 0.00 W/m2 unknown
19:34 41 °F 26.6 °F 30.4 in SSW 1.2 mph 1.9 mph 58% 0 in 0.00 W/m2 unknown
19:39 41 °F 26.6 °F 30.4 in Calm   1.2 mph 59% 0 in 0.00 W/m2 unknown
19:44 41 °F 26.6 °F 30.4 in Calm     58% 0 in 0.00 W/m2 unknown
19:49 41 °F 26.6 °F 30.4 in Calm     59% 0 in 0.00 W/m2 unknown
19:54 41 °F 26.6 °F 30.4 in Calm     59% 0 in 0.00 W/m2 unknown
19:59 39.2 °F 28.4 °F 30.4 in Calm     61% 0 in 0.00 W/m2 unknown
20:04 39.2 °F 28.4 °F 30.4 in Calm     61% 0 in 0.00 W/m2 unknown
20:09 39.2 °F 26.6 °F 30.4 in Calm     62% 0 in 0.00 W/m2 unknown
20:14 39.2 °F 28.4 °F 30.4 in Calm     63% 0 in 0.00 W/m2 unknown
20:19 39.2 °F 26.6 °F 30.4 in Calm     63% 0 in 0.00 W/m2 unknown
20:24 39.2 °F 26.6 °F 30.4 in SSW 0.6 mph 1.9 mph 61% 0 in 0.00 W/m2 unknown
20:29 39.2 °F 26.6 °F 30.4 in SSW 2.5 mph 3.7 mph 63% 0 in 0.00 W/m2 unknown
20:34 39.2 °F 26.6 °F 30.4 in SSW 2.5 mph 3.7 mph 63% 0 in 0.00 W/m2 unknown
20:39 39.2 °F 26.6 °F 30.4 in SW 3.1 mph 3.7 mph 62% 0 in 0.00 W/m2 unknown
20:44 39.2 °F 26.6 °F 30.4 in SW 3.1 mph 3.7 mph 61% 0 in 0.00 W/m2 unknown
20:49 37.4 °F 24.8 °F 30.4 in SW 2.5 mph 3.7 mph 61% 0 in 0.00 W/m2 unknown
20:54 37.4 °F 24.8 °F 30.4 in SW 3.1 mph 3.7 mph 61% 0 in 0.00 W/m2 unknown
20:59 37.4 °F 24.8 °F 30.4 in WSW 2.5 mph 3.7 mph 63% 0 in 0.00 W/m2 unknown
21:04 37.4 °F 24.8 °F 30.4 in WSW 2.5 mph 3.7 mph 64% 0 in 0.00 W/m2 unknown
21:09 35.6 °F 24.8 °F 30.4 in WSW 3.1 mph 3.7 mph 65% 0 in 0.00 W/m2 unknown
21:14 35.6 °F 24.8 °F 30.4 in WSW 3.1 mph 3.7 mph 65% 0 in 0.00 W/m2 unknown
21:19 35.6 °F 24.8 °F 30.4 in WSW 3.7 mph 3.7 mph 65% 0 in 0.00 W/m2 unknown
21:24 35.6 °F 24.8 °F 30.4 in WSW 3.1 mph 3.7 mph 65% 0 in 0.00 W/m2 unknown
21:29 35.6 °F 26.6 °F 30.4 in West 1.9 mph 3.7 mph 66% 0 in 0.00 W/m2 unknown
21:34 35.6 °F 26.6 °F 30.4 in West 1.9 mph 3.7 mph 66% 0 in 0.00 W/m2 unknown
21:39 35.6 °F 24.8 °F 30.4 in West 2.5 mph 3.7 mph 64% 0 in 0.00 W/m2 unknown
21:44 35.6 °F 24.8 °F 30.4 in West 2.5 mph 3.7 mph 63% 0 in 0.00 W/m2 unknown
21:49 35.6 °F 24.8 °F 30.4 in West 2.5 mph 3.7 mph 63% 0 in 0.00 W/m2 unknown
21:54 35.6 °F 24.8 °F 30.4 in WSW 3.1 mph 3.7 mph 64% 0 in 0.00 W/m2 unknown
21:59 35.6 °F 24.8 °F 30.4 in WSW 1.9 mph 3.1 mph 64% 0 in 0.00 W/m2 unknown
22:04 35.6 °F 24.8 °F 30.4 in West 2.5 mph 3.7 mph 64% 0 in 0.00 W/m2 unknown
22:09 35.6 °F 24.8 °F 30.4 in West 2.5 mph 3.7 mph 64% 0 in 0.00 W/m2 unknown
22:14 35.6 °F 24.8 °F 30.4 in West 2.5 mph 3.7 mph 65% 0 in 0.00 W/m2 unknown
22:19 35.6 °F 24.8 °F 30.4 in West 2.5 mph 3.7 mph 67% 0 in 0.00 W/m2 unknown
22:24 33.8 °F 24.8 °F 30.4 in West 2.5 mph 3.7 mph 68% 0 in 0.00 W/m2 unknown
22:29 33.8 °F 24.8 °F 30.4 in West 2.5 mph 3.7 mph 68% 0 in 0.00 W/m2 unknown
22:34 33.8 °F 24.8 °F 30.4 in West 2.5 mph 3.7 mph 68% 0 in 0.00 W/m2 unknown
22:39 33.8 °F 24.8 °F 30.4 in West 2.5 mph 3.7 mph 68% 0 in 0.00 W/m2 unknown
22:44 33.8 °F 24.8 °F 30.4 in West 2.5 mph 3.7 mph 69% 0 in 0.00 W/m2 unknown
22:49 33.8 °F 24.8 °F 30.4 in West 2.5 mph 3.7 mph 70% 0 in 0.00 W/m2 unknown
22:54 32 °F 24.8 °F 30.4 in West 1.9 mph 3.1 mph 71% 0 in 0.00 W/m2 unknown
22:59 33.8 °F 24.8 °F 30.4 in WNW 1.2 mph 2.5 mph 70% 0 in 0.00 W/m2 unknown
23:04 33.8 °F 24.8 °F 30.4 in WNW 1.2 mph 2.5 mph 70% 0 in 0.00 W/m2 unknown
23:09 33.8 °F 24.8 °F 30.4 in WNW 1.2 mph 2.5 mph 70% 0 in 0.00 W/m2 unknown
23:14 33.8 °F 24.8 °F 30.4 in Calm   1.9 mph 71% 0 in 0.00 W/m2 unknown
23:19 33.8 °F 24.8 °F 30.4 in WNW 1.2 mph 1.9 mph 71% 0 in 0.00 W/m2 unknown
23:24 33.8 °F 24.8 °F 30.4 in WNW 2.5 mph 3.1 mph 71% 0 in 0.00 W/m2 unknown
23:29 33.8 °F 24.8 °F 30.4 in WNW 2.5 mph 3.7 mph 70% 0 in 0.00 W/m2 unknown
23:34 33.8 °F 24.8 °F 30.4 in WNW 2.5 mph 3.7 mph 70% 0 in 0.00 W/m2 unknown
23:39 33.8 °F 24.8 °F 30.4 in NW 3.1 mph 3.7 mph 71% 0 in 0.00 W/m2 unknown
23:44 33.8 °F 24.8 °F 30.4 in NW 3.7 mph 5 mph 71% 0 in 0.00 W/m2 unknown
23:49 33.8 °F 24.8 °F 30.4 in NW 3.1 mph 5 mph 69% 0 in 0.00 W/m2 unknown
23:54 33.8 °F 24.8 °F 30.4 in NW 4.3 mph 6.2 mph 69% 0 in 0.00 W/m2 unknown
23:59 33.8 °F 24.8 °F 30.4 in NW 4.3 mph 6.2 mph 69% 0 in 0.00 W/m2 unknown
Stazione Meteorologica MeteoMincio Rivalta s/M (MN)
Con i complimenti di Weather Underground - 4 mb



GLOSSARIO METEOROLOGICO
Indice di calore (Heat Index)
Utilizza la temperatura e l'umidità relativa per determinare la sensazione di calore dell'aria. Quando l'umidità è bassa, la temperatura apparente sarà minore della temperatura dell'aria, dal momento che la traspirazione evapora rapidamente e raffredda il corpo. Quando l'umidità è alta, la temperatura apparente sembrerà più alta dell'attuale temperatura dell'aria, perchè la traspirazione del corpo evapora più lentamente.
Share

Non seguire questo link o sarai bannato dal sito!